LEMG

Málaga

Airport
ICAO code
LEMG
Summary
ICAO Region
EUR
ICAO Territory
Location

Málaga,

Coordinates
36° 40' 30" N , 4° 29' 57" W
KCC
Metar
Observation
LEMG 071330Z 12005KT 070V160 9999 FEW030 SCT045 BKN058 17/13 Q1012 NOSIG
Station
Malaga / Aeropuerto
Date/Time
2022-12-07 13:30:00
Wind direction
120°
Wind speed
05 kts
Lowest cloud amount
few clouds
Temperature
17°C
Dew point
13°C
Humidity
77%
QNH
1012 hPa
Weather condition
n/a

Description

Málaga Airport, also known as Pablo Ruiz Picasso Airport, is an important airport for Spanish tourism as it is the main international airport for the Costa Del Sol. It is 8 km southwest of Málaga and 5 km north of Torremolinos.

Climatology

Dry-summer subtropical ”Mediterranean" climate (Köppen climate classification Csa) - characterized by hot, dry summers and mild winters. During the summer, subtropical high pressure cells dominate, making rainfall unlikely except for the occasional thunderstorm. In the winter, periodic storms bring rain.

Runways

Designator Length Width Surface Rops
12/30 2750 45 ASPHALT Yes/Yes
13/31 3200 45 ASP Yes/Yes

Airport map

Aerial View

SKYbrary Partners:

Safety knowledge contributed by: